Regional Weather Roundup
Issued by NWS

Home | Current Version | Previous Version | Graphics & Text | Print | Product List | Glossary Off
Versions: 1 2 3 4 5 6 7 8 9 10 11 12 13 14 15 16 17 18 19 20 21 22 23 24 25 26 27 28 29 30 31 32 33 34 35 36 37 38 39 40 41 42 43 44 45 46 47 48 49 50

000
ASUS43 KDTX 160510
RWRMI
MICHIGAN HOURLY REGIONAL WEATHER ROUNDUP
NATIONAL WEATHER SERVICE DETROIT/PONTIAC MI
100 AM EDT TUE SEP 16 2014

NOTE: "FAIR" INDICATES FEW OR NO CLOUDS BELOW 12,000 FEET WITH NO
SIGNIFICANT WEATHER AND/OR OBSTRUCTION TO VISIBILITY.

MIZ047>049-052>055-059>063-066>070-074>076-081>083-160600-
SOUTHEAST LOWER MICHIGAN

CITY           SKY/WX    TMP DP  RH WIND       PRES   REMARKS
ADRIAN         CLEAR     51  50  96 NW6       30.11S FOG
ALMA           PTCLDY    49  47  94 NW3       30.13R
ANN ARBOR      CLOUDY    54  50  86 N8        30.10R
BAD AXE        MOCLDY    50  50 100 CALM      30.09F
DETROIT CITY   CLOUDY    57  51  80 N6        30.09S
DETROIT        MOCLDY    52  49  89 NW5       30.09F
FLINT          CLOUDY    55  51  86 N5        30.11F
GROSSE ILE     CLOUDY    55  54  94 NW3       30.08S
HILLSDALE      CLOUDY    54  54 100 CALM      30.11S FOG
HOWELL         CLOUDY    50  50  99 CALM      30.10F FOG

CITY           SKY/WX    TMP DP  RH WIND       PRES   REMARKS
JACKSON        MOCLDY    50  49  96 VRB3      30.12R
LAMBERTVILLE   PTCLDY    52  50  93 CALM      30.10S FOG
LANSING        CLOUDY    52  51  97 NW5       30.13R
LAPEER         NOT AVBL
MASON          CLOUDY    50  49  97 CALM      30.11S FOG
MONROE         FOG       52  50  93 CALM      30.08S VSB 1/2
MT. CLEMENS    CLOUDY    54  51  90 NW6       30.07S
PONTIAC        CLOUDY    53  50  89 N7        30.09S
PORT HOPE        N/A     52  49  89 W5        30.07F
PORT HURON     CLOUDY    52  52 100 NW5       30.09S
TRI CITIES     MOCLDY    51  48  89 NW5       30.12S
YPSILANTI      PTCLDY    54  49  83 NW6       30.10S
$$
MIZ043>046-050>051-056>058-064>065-071>073-077>080-160600-
SOUTHWEST LOWER MICHIGAN

CITY           SKY/WX    TMP DP  RH WIND       PRES   REMARKS
BATTLE CREEK   CLOUDY    52  50  93 N6        30.14R
BENTON HARBOR  CLOUDY    52  51  97 NE7       30.14R
BIG RAPIDS     FOG       42  42 100 CALM      30.13S VSB 1/2
COLDWATER      FOG       54  53  97 CALM      30.12S VSB 1
HOLLAND        CLEAR     49  47  93 CALM      30.16R
GRAND RAPIDS   PTCLDY    51  50  96 NW6       30.14S
KALAMAZOO      CLOUDY    53  50  89 N7        30.14R
MARSHALL       CLOUDY    52  51  95 N3        30.12R
MUSKEGON       FOG       45  43  93 CALM      30.15S VSB 3/4
$$
MIZ016>042-160600-
NORTHERN LOWER MICHIGAN

CITY           SKY/WX    TMP DP  RH WIND       PRES   REMARKS
ALPENA         CLEAR     44  43  96 W5        30.10R
BEAVER ISLAND  CLOUDY    54  44  70 N5        30.12S
BELLAIRE       CLOUDY    47  46  95 CALM      30.12S
CADILLAC       FOG       39  39 100 CALM      30.12S VSB 1/2
CHARLEVOIX     CLOUDY    56  47  70 N8        30.14S
FRANKFORT      PTCLDY    45  42  89 CALM      30.12S
GAYLORD        CLOUDY    44  41  89 CALM      30.10F
GRAYLING       FOG       40  40 100 CALM      30.11F VSB 1/4
HARBOR SPRINGS CLOUDY    52  47  84 NW3       30.11S
HOUGHTON LAKE  FOG       43  43 100 CALM      30.12S VSB 1/4
MANISTEE       CLEAR     43  39  87 CALM      30.14R
OSCODA         CLEAR     43  43 100 CALM      30.09S
PELLSTON       CLOUDY    49  47  93 NW3       30.11S
TRAVERSE CITY  CLOUDY    47  44  90 CALM      30.11S
$$
MIZ007>008-015-160600-
EASTERN UPPER MICHIGAN

CITY           SKY/WX    TMP DP  RH WIND       PRES   REMARKS
KINROSS        CLOUDY    45  43  93 W3        30.09S
MACKINAC ISLAN CLOUDY    50  45  83 NW7       30.10S
NEWBERRY       PTCLDY    41  40  97 CALM      30.10S
S. S. MARIE    CLOUDY    46  44  93 W3        30.08S
$$
MIZ004>006-011>014-085-160600-
CENTRAL UPPER MICHIGAN

CITY           SKY/WX    TMP DP  RH WIND       PRES   REMARKS
MANISTIQUE     PTCLDY    44  43  97 NW3       30.11S
ESCANABA       CLEAR     46  45  93 NW3       30.13S
MENOMINEE      CLEAR     46  39  76 NW5       30.14R
SAWYER-GWINN   CLEAR     40  37  88 W3        30.11S
$$
MIZ001>003-009>011-084-160600-
WESTERN UPPER MICHIGAN

CITY           SKY/WX    TMP DP  RH WIND       PRES   REMARKS
IRON MOUNTAIN  CLEAR     38  35  89 CALM      30.13S
HOUGHTON       PTCLDY    46  38  73 W12       30.09S
COPPER HARBOR    N/A     51  38  60 W7        30.06F
IRONWOOD       CLEAR     37  36  93 W5        30.12F
$$

ABBREVIATIONS USED IN REMARKS
   TC - TEMPERATURE IN CELSIUS
  WCI - WIND CHILL INDEX
   HX - HEAT INDEX
  VSB - VISIBILITY



USA.gov is the U.S. government's official web portal to all federal, state and local government web resources and services.